This demonstration page uses our WeatherBlox Daily Observations layout. Learn more.

Left ArrowRight Arrow

Hourly Observations for March 30, 2018

Temp ( °F °C ) Dew Point ( °F °C ) Humidity (%) Winds ( mph kmh ) Pressure ( in mb ) Visibility ( mi km ) Precip ( " mm )
12:51 am 00:51 Clear 51 10.6 19 -7.2 28 28 S 7 11 29.97 1015 10 16 0.00 0.00
1:51 am 01:51 Clear 52 11.1 20 -6.7 28 28 SE 5 7 29.96 1015 10 16 0.00 0.00
2:51 am 02:51 Clear 49 9.4 19 -7.2 31 31 E 6 9 29.96 1015 10 16 0.00 0.00
3:51 am 03:51 Clear 47 8.3 19 -7.2 33 33 ESE 5 7 29.97 1015 10 16 0.00 0.00
4:51 am 04:51 Clear 45 7.2 19 -7.2 35 35 SE 5 7 29.98 1015 10 16 0.00 0.00
5:51 am 05:51 Clear 43 6.1 20 -6.7 40 40 SE 3 6 30.01 1016 10 16 0.00 0.00
6:51 am 06:51 Sunny 47 8.3 20 -6.7 34 34 SE 3 6 30.04 1017 10 16 0.00 0.00
7:51 am 07:51 Sunny 58 14.4 23 -5 26 26 SSE 9 15 30.05 1018 10 16 0.00 0.00
8:51 am 08:51 Sunny 67 19.4 23 -5 19 19 ESE 7 11 30.04 1017 10 16 0.00 0.00
9:51 am 09:51 Sunny 70 21.1 20 -6.7 15 15 ESE 9 15 30.04 1017 10 16 0.00 0.00
10:51 am 10:51 Sunny 73 22.8 20 -6.7 13 13 VRB 5 7 30.04 1017 10 16 0.00 0.00
11:51 am 11:51 Sunny 76 24.4 21 -6.1 13 13 S 7 11 30.01 1016 10 16 0.00 0.00
12:51 pm 12:51 Sunny 78 25.6 20 -6.7 11 11 VRB 3 6 29.98 1015 10 16 0.00 0.00
1:51 pm 13:51 Sunny 80 26.7 19 -7.2 10 10 VRB 6 9 29.95 1014 10 16 0.00 0.00
2:51 pm 14:51 Sunny 82 27.8 21 -6.1 10 10 NW 9 15 29.92 1013 10 16 0.00 0.00
3:51 pm 15:51 Sunny 83 28.3 20 -6.7 10 10 WNW 8 13 29.90 1012 10 16 0.00 0.00
4:51 pm 16:51 Sunny 83 28.3 19 -7.2 9 9 NNW 13 20 29.89 1012 10 16 0.00 0.00
5:51 pm 17:51 Sunny 81 27.2 20 -6.7 10 10 WNW 16 26 29.90 1012 10 16 0.00 0.00
6:51 pm 18:51 Clear 76 24.4 20 -6.7 12 12 NW 15 24 29.91 1013 10 16 0.00 0.00
7:51 pm 19:51 Clear 72 22.2 18 -7.8 13 13 NNW 13 20 29.92 1013 10 16 0.00 0.00
8:51 pm 20:51 Clear 69 20.6 18 -7.8 14 14 NW 10 17 29.93 1014 10 16 0.00 0.00
9:51 pm 21:51 Clear 60 15.6 20 -6.7 21 21 NW 8 13 29.95 1014 10 16 0.00 0.00
10:51 pm 22:51 Clear 57 13.9 19 -7.2 23 23 NW 8 13 29.94 1014 10 16 0.00 0.00
11:51 pm 23:51 Clear 58 14.4 19 -7.2 22 22 NNW 9 15 29.95 1014 10 16 0.00 0.00

Powered by AerisWeather